When you browse on this site, cookies collect data to enhance your experience and personalize the content and advertising you see.
Visit our Privacy Policy to learn more. By continuing to use the site, you agree to this use of cookies and data.
  • en Belgique
  • Liste des pays
  • À 7 jours
  • Température de l'eau
  • Carte satellitaire
  • Carte météo
  • Widgets météo
  • user-avatar
    Se connecter

    Météo par heure à Andenne

    Ce jour, 24 Janvier, Jeudi

    Heure Température Précipitation Vent Pression Humidité
    00:00 -5°C° 0 mm 3 m/s 744 mmHg 87%
    01:00 -4°C° 0 mm 2 m/s 744 mmHg 87%
    02:00 -4°C° 0 mm 2 m/s 744 mmHg 88%
    03:00 -4°C° 0 mm 2 m/s 744 mmHg 88%
    04:00 -5°C° 0 mm 2 m/s 745 mmHg 90%
    05:00 -4°C° 0 mm 1 m/s 745 mmHg 93%
    06:00 -4°C° 0 mm 1 m/s 745 mmHg 95%
    07:00 -3°C° 0 mm 1 m/s 746 mmHg 93%
    08:00 -3°C° 0 mm 1 m/s 746 mmHg 92%
    09:00 -2°C° 0 mm 1 m/s 747 mmHg 90%
    10:00 -1°C° 0 mm 1 m/s 747 mmHg 88%
    11:00 -2°C° 0 mm 2 m/s 747 mmHg 85%
    12:00 -2°C° 0 mm 2 m/s 747 mmHg 83%
    13:00 -1°C° 0 mm 2 m/s 747 mmHg 85%
    14:00 -1°C° 0 mm 2 m/s 747 mmHg 86%
    15:00 -1°C° 0 mm 2 m/s 747 mmHg 88%
    16:00 -1°C° 0 mm 2 m/s 748 mmHg 91%
    17:00 -2°C° 0 mm 2 m/s 748 mmHg 94%
    18:00 -2°C° 0 mm 2 m/s 748 mmHg 96%
    19:00 0°C° 0 mm 1 m/s 749 mmHg 96%
    20:00 0°C° 0 mm 1 m/s 749 mmHg 96%
    21:00 0°C° 0 mm 1 m/s 750 mmHg 96%
    22:00 0°C° 0 mm 1 m/s 750 mmHg 95%
    23:00 0°C° 0 mm 1 m/s 750 mmHg 95%

    Demain, 25 Janvier, Vendredi

    Heure Température Précipitation Vent Pression Humidité
    00:00 0°C° 0 mm 1 m/s 750 mmHg 94%
    01:00 0°C° 0 mm 1 m/s 750 mmHg 94%
    02:00 0°C° 0 mm 1 m/s 750 mmHg 93%
    03:00 0°C° 0 mm 1 m/s 750 mmHg 92%
    04:00 -1°C° 0 mm 1 m/s 751 mmHg 92%
    05:00 -1°C° 0 mm 1 m/s 751 mmHg 92%
    06:00 -1°C° 0 mm 1 m/s 751 mmHg 92%
    07:00 -1°C° 0 mm 1 m/s 751 mmHg 90%
    08:00 -3°C° 0 mm 2 m/s 752 mmHg 89%
    09:00 -2°C° 0 mm 2 m/s 752 mmHg 88%
    10:00 -1°C° 0 mm 2 m/s 752 mmHg 86%
    11:00 +1°C° 0 mm 2 m/s 753 mmHg 84%
    12:00 +1°C° 0 mm 3 m/s 753 mmHg 81%
    13:00 +1°C° 0 mm 3 m/s 753 mmHg 83%
    14:00 0°C° 0 mm 3 m/s 753 mmHg 85%
    15:00 0°C° 0 mm 3 m/s 752 mmHg 88%
    16:00 0°C° 0 mm 3 m/s 753 mmHg 89%
    17:00 -2°C° 0 mm 4 m/s 753 mmHg 91%
    18:00 -2°C° 0 mm 4 m/s 753 mmHg 93%
    19:00 -2°C° 0.2 mm 4 m/s 753 mmHg 92%
    20:00 -1°C° 0.2 mm 5 m/s 753 mmHg 92%
    21:00 -1°C° 0.2 mm 5 m/s 753 mmHg 91%
    22:00 -1°C° 0.1 mm 5 m/s 753 mmHg 91%
    23:00 -1°C° 0.1 mm 5 m/s 753 mmHg 92%

    Après-demain, 26 Janvier, Samedi

    Heure Température Précipitation Vent Pression Humidité
    00:00 -1°C° 0.1 mm 5 m/s 753 mmHg 92%
    01:00 -1°C° 0 mm 5 m/s 752 mmHg 93%
    02:00 0°C° 0 mm 5 m/s 752 mmHg 94%
    03:00 0°C° 0 mm 5 m/s 752 mmHg 94%
    04:00 0°C° 0 mm 5 m/s 752 mmHg 95%
    05:00 0°C° 0 mm 5 m/s 751 mmHg 95%
    06:00 +1°C° 0 mm 4 m/s 751 mmHg 96%
    07:00 +1°C° 0.1 mm 5 m/s 751 mmHg 96%
    08:00 +1°C° 0.1 mm 5 m/s 751 mmHg 95%
    09:00 +1°C° 0.1 mm 5 m/s 751 mmHg 95%
    10:00 +2°C° 0.1 mm 5 m/s 750 mmHg 95%
    11:00 +2°C° 0.1 mm 5 m/s 750 mmHg 95%
    12:00 +2°C° 0.1 mm 5 m/s 749 mmHg 94%
    13:00 +2°C° 0 mm 5 m/s 749 mmHg 94%
    14:00 +2°C° 0 mm 6 m/s 748 mmHg 94%
    15:00 +2°C° 0 mm 6 m/s 747 mmHg 94%
    16:00 +2°C° 0 mm 6 m/s 747 mmHg 94%
    17:00 +2°C° 0 mm 6 m/s 746 mmHg 93%
    18:00 +2°C° 0 mm 7 m/s 745 mmHg 93%
    19:00 +2°C° 0 mm 7 m/s 744 mmHg 92%
    20:00 +2°C° 0 mm 7 m/s 743 mmHg 92%
    21:00 +2°C° 0 mm 7 m/s 742 mmHg 91%
    22:00 +1°C° 0.2 mm 8 m/s 741 mmHg 90%
    23:00 +2°C° 0.2 mm 8 m/s 740 mmHg 90%

    27 Janvier, Dimanche

    Heure Température Précipitation Vent Pression Humidité
    00:00 +2°C° 0.2 mm 9 m/s 739 mmHg 89%
    01:00 +2°C° 0.7 mm 9 m/s 738 mmHg 90%
    02:00 +2°C° 0.7 mm 8 m/s 737 mmHg 90%
    03:00 +2°C° 0.7 mm 8 m/s 736 mmHg 90%
    04:00 +2°C° 0.1 mm 8 m/s 735 mmHg 89%
    05:00 +1°C° 0.1 mm 9 m/s 734 mmHg 87%
    06:00 +1°C° 0.1 mm 9 m/s 733 mmHg 86%
    07:00 +1°C° 0.3 mm 9 m/s 733 mmHg 86%
    08:00 +2°C° 0.3 mm 10 m/s 732 mmHg 85%
    09:00 +2°C° 0.3 mm 10 m/s 731 mmHg 85%
    10:00 +2°C° 0.3 mm 10 m/s 731 mmHg 85%
    11:00 +2°C° 0.3 mm 10 m/s 731 mmHg 86%
    12:00 +2°C° 0.3 mm 10 m/s 731 mmHg 86%
    13:00 +2°C° 0.8 mm 10 m/s 732 mmHg 86%
    14:00 +2°C° 0.8 mm 10 m/s 732 mmHg 86%
    15:00 +2°C° 0.8 mm 11 m/s 732 mmHg 85%
    16:00 +1°C° 0.4 mm 10 m/s 733 mmHg 83%
    17:00 +1°C° 0.4 mm 10 m/s 734 mmHg 81%
    18:00 0°C° 0.4 mm 9 m/s 734 mmHg 79%
    19:00 0°C° 0.6 mm 10 m/s 735 mmHg 81%
    20:00 -1°C° 0.6 mm 11 m/s 735 mmHg 83%
    21:00 -2°C° 0.6 mm 12 m/s 736 mmHg 85%
    22:00 -1°C° 1.2 mm 12 m/s 736 mmHg 85%
    23:00 -1°C° 1.2 mm 11 m/s 737 mmHg 86%

    28 Janvier, Lundi

    Heure Température Précipitation Vent Pression Humidité
    00:00 0°C° 1.2 mm 10 m/s 737 mmHg 87%
    01:00 0°C° 0.7 mm 10 m/s 738 mmHg 87%
    02:00 0°C° 0.7 mm 9 m/s 739 mmHg 87%
    03:00 0°C° 0.7 mm 8 m/s 739 mmHg 87%
    04:00 -1°C° 0.4 mm 7 m/s 740 mmHg 87%
    05:00 -1°C° 0.4 mm 7 m/s 741 mmHg 87%
    06:00 -1°C° 0.4 mm 7 m/s 741 mmHg 87%
    07:00 -1°C° 0.1 mm 6 m/s 742 mmHg 88%
    08:00 -2°C° 0.1 mm 6 m/s 743 mmHg 88%
    09:00 -2°C° 0.1 mm 6 m/s 743 mmHg 89%
    10:00 -2°C° 0.2 mm 6 m/s 743 mmHg 88%
    11:00 -1°C° 0.2 mm 6 m/s 744 mmHg 87%
    12:00 -1°C° 0.2 mm 6 m/s 744 mmHg 86%
    13:00 -1°C° 0.1 mm 6 m/s 744 mmHg 85%
    14:00 0°C° 0.1 mm 5 m/s 744 mmHg 84%
    15:00 -1°C° 0.1 mm 5 m/s 744 mmHg 83%
    16:00 -2°C° 0 mm 4 m/s 744 mmHg 84%
    17:00 -3°C° 0 mm 4 m/s 744 mmHg 86%
    18:00 -4°C° 0 mm 3 m/s 744 mmHg 87%
    19:00 -4°C° 0 mm 3 m/s 744 mmHg 87%
    20:00 -4°C° 0 mm 3 m/s 744 mmHg 87%
    21:00 -4°C° 0 mm 3 m/s 743 mmHg 88%
    22:00 -3°C° 0.1 mm 4 m/s 743 mmHg 89%
    23:00 -2°C° 0.1 mm 4 m/s 742 mmHg 90%

    29 Janvier, Mardi

    Heure Température Précipitation Vent Pression Humidité
    00:00 -1°C° 0.1 mm 5 m/s 742 mmHg 91%
    01:00 -1°C° 1.1 mm 5 m/s 741 mmHg 92%
    02:00 -1°C° 1.1 mm 5 m/s 741 mmHg 92%
    03:00 -1°C° 1.1 mm 6 m/s 741 mmHg 92%
    04:00 -1°C° 0.1 mm 5 m/s 741 mmHg 91%
    05:00 -1°C° 0.1 mm 5 m/s 741 mmHg 90%
    06:00 -2°C° 0.1 mm 5 m/s 741 mmHg 89%
    07:00 -2°C° 0.2 mm 6 m/s 741 mmHg 89%
    08:00 -2°C° 0.2 mm 6 m/s 742 mmHg 89%
    09:00 -2°C° 0.2 mm 6 m/s 742 mmHg 88%
    10:00 -2°C° 0.2 mm 7 m/s 742 mmHg 87%
    11:00 -1°C° 0.2 mm 7 m/s 743 mmHg 85%
    12:00 -1°C° 0.2 mm 7 m/s 743 mmHg 84%
    13:00 -1°C° 0.2 mm 7 m/s 743 mmHg 83%
    14:00 -2°C° 0.2 mm 6 m/s 743 mmHg 83%
    15:00 -2°C° 0.2 mm 6 m/s 743 mmHg 83%
    16:00 -2°C° 0 mm 6 m/s 743 mmHg 84%
    17:00 -1°C° 0 mm 5 m/s 743 mmHg 85%
    18:00 -2°C° 0 mm 5 m/s 743 mmHg 86%
    19:00 -2°C° 0.2 mm 5 m/s 743 mmHg 87%
    20:00 -2°C° 0.2 mm 5 m/s 743 mmHg 88%
    21:00 -3°C° 0.2 mm 6 m/s 743 mmHg 89%
    22:00 -2°C° 0.3 mm 5 m/s 743 mmHg 90%
    23:00 -2°C° 0.3 mm 5 m/s 743 mmHg 90%
    Voir plus